| time (UTC) | temp F | wind direction | speed knots | gust knots | rain 1hr in | rain 24hr in | rain mn in | humidity % | barometer mb |
| 20260906231805 | 61 | 72 | 0.0 | 1.7 | 0.00 | 0.16 | 0.06 | 76 | 1022.5 |
| 20260906231306 | 60 | 64 | 0.9 | 2.6 | 0.00 | 0.16 | 0.06 | 78 | 1022.8 |
| 20260906230805 | 59 | 94 | 0.0 | 2.6 | 0.00 | 0.16 | 0.06 | 81 | 1022.9 |
| 20260906230306 | 59 | 77 | 0.9 | 1.7 | 0.00 | 0.16 | 0.06 | 81 | 1023.0 |
| 20260906225805 | 59 | 121 | 0.0 | 1.7 | 0.00 | 0.16 | 0.06 | 80 | 1022.9 |
| 20260906225307 | 59 | 67 | 0.9 | 2.6 | 0.00 | 0.16 | 0.06 | 77 | 1022.8 |
| 20260906224806 | 59 | 127 | 0.9 | 2.6 | 0.00 | 0.16 | 0.06 | 77 | 1022.7 |
| 20260906224305 | 59 | 103 | 0.0 | 0.9 | 0.00 | 0.16 | 0.06 | 78 | 1022.8 |
| 20260906223805 | 59 | 89 | 0.0 | 1.7 | 0.00 | 0.16 | 0.06 | 78 | 1022.9 |
| 20260906222805 | 58 | 135 | 0.9 | 2.6 | 0.00 | 0.16 | 0.06 | 79 | 1023.0 |
| 20260906222306 | 58 | 196 | 0.9 | 2.6 | 0.00 | 0.16 | 0.06 | 78 | 1023.2 |
| 20260906221805 | 59 | 234 | 0.0 | 1.7 | 0.00 | 0.16 | 0.06 | 78 | 1023.2 |
| 20260906221306 | 59 | 193 | 0.9 | 4.3 | 0.00 | 0.16 | 0.06 | 77 | 1023.2 |
| 20260906220305 | 59 | 185 | 0.0 | 1.7 | 0.00 | 0.16 | 0.06 | 77 | 1023.1 |
| 20260906215806 | 59 | 215 | 0.0 | 1.7 | 0.00 | 0.16 | 0.06 | 78 | 1023.1 |
| 20260906215307 | 59 | 216 | 0.0 | 1.7 | 0.00 | 0.16 | 0.06 | 79 | 1023.2 |
| 20260906214805 | 59 | 189 | 0.9 | 2.6 | 0.00 | 0.16 | 0.06 | 77 | 1023.2 |
| 20260906214305 | 59 | 182 | 0.9 | 4.3 | 0.00 | 0.16 | 0.06 | 76 | 1023.3 |
| 20260906213306 | 59 | 60 | 0.9 | 1.7 | 0.00 | 0.16 | 0.06 | 78 | 1023.1 |
| 20260906212805 | 59 | 56 | 0.0 | 0.9 | 0.00 | 0.16 | 0.06 | 79 | 1023.1 |
| 20260906212306 | 59 | 59 | 0.0 | 0.9 | 0.00 | 0.16 | 0.06 | 81 | 1023.2 |
| 20260906211805 | 59 | 58 | 0.0 | 4.3 | 0.00 | 0.16 | 0.06 | 80 | 1023.2 |
| 20260906211306 | 59 | 109 | 0.0 | 2.6 | 0.00 | 0.17 | 0.06 | 81 | 1023.4 |
| 20260906210805 | 59 | 205 | 0.9 | 1.7 | 0.00 | 0.17 | 0.06 | 80 | 1023.4 |
| 20260906210305 | 58 | 116 | 0.0 | 1.7 | 0.00 | 0.17 | 0.06 | 81 | 1023.3 |
| 20260906205806 | 58 | 40 | 0.9 | 1.7 | 0.00 | 0.18 | 0.06 | 83 | 1023.3 |
| 20260906205306 | 58 | 125 | 0.0 | 0.9 | 0.00 | 0.18 | 0.06 | 83 | 1023.3 |
| 20260906204305 | 58 | 345 | 0.0 | 1.7 | 0.00 | 0.18 | 0.06 | 85 | 1023.5 |
| 20260906203806 | 57 | 159 | 0.0 | 1.7 | 0.00 | 0.18 | 0.06 | 86 | 1023.6 |
| 20260906203306 | 56 | 51 | 0.9 | 2.6 | 0.00 | 0.18 | 0.06 | 88 | 1023.6 |
| 20260906202805 | 56 | 51 | 0.9 | 4.3 | 0.00 | 0.18 | 0.06 | 89 | 1024.1 |
| 20260906202306 | 56 | 74 | 0.9 | 1.7 | 0.00 | 0.19 | 0.06 | 88 | 1024.1 |
| 20260906201305 | 56 | 76 | 0.9 | 1.7 | 0.00 | 0.20 | 0.06 | 90 | 1024.2 |
| 20260906195805 | 55 | 102 | 0.9 | 1.7 | 0.00 | 0.21 | 0.06 | 90 | 1024.3 |
| 20260906195307 | 55 | 100 | 0.0 | 4.3 | 0.00 | 0.22 | 0.06 | 92 | 1024.3 |
| 20260906194805 | 55 | 60 | 0.9 | 4.3 | 0.00 | 0.22 | 0.06 | 92 | 1024.4 |
| 20260906194306 | 54 | 58 | 0.9 | 2.6 | 0.00 | 0.22 | 0.06 | 93 | 1024.4 |
| 20260906193805 | 54 | 52 | 0.9 | 4.3 | 0.00 | 0.22 | 0.06 | 93 | 1024.7 |
| 20260906193305 | 54 | 99 | 0.9 | 4.3 | 0.00 | 0.22 | 0.06 | 94 | 1024.5 |
| 20260906192805 | 54 | 84 | 0.9 | 4.3 | 0.00 | 0.22 | 0.06 | 93 | 1024.7 |
| 20260906192307 | 54 | 99 | 0.9 | 1.7 | 0.00 | 0.22 | 0.06 | 94 | 1024.7 |
| 20260906191305 | 53 | 50 | 0.9 | 4.3 | 0.00 | 0.22 | 0.06 | 93 | 1024.8 |
| 20260906190805 | 53 | 77 | 0.9 | 2.6 | 0.00 | 0.22 | 0.06 | 93 | 1024.8 |
| 20260906190305 | 54 | 50 | 0.9 | 1.7 | 0.00 | 0.22 | 0.06 | 94 | 1025.0 |
| 20260906185805 | 53 | 52 | 0.0 | 5.2 | 0.00 | 0.22 | 0.06 | 94 | 1024.9 |
| 20260906185306 | 53 | 30 | 0.9 | 2.6 | 0.00 | 0.22 | 0.06 | 94 | 1025.0 |
| 20260906184807 | 53 | 22 | 0.0 | 5.2 | 0.00 | 0.22 | 0.06 | 94 | 1025.1 |
| 20260906184306 | 53 | 74 | 0.9 | 5.2 | 0.00 | 0.22 | 0.06 | 94 | 1025.3 |
| 20260906183806 | 52 | 73 | 0.9 | 4.3 | 0.00 | 0.22 | 0.06 | 94 | 1025.2 |
| 20260906183305 | 52 | 61 | 0.9 | 1.7 | 0.00 | 0.22 | 0.06 | 94 | 1025.3 |
| 20260906182806 | 52 | 123 | 0.9 | 2.6 | 0.00 | 0.22 | 0.06 | 94 | 1025.3 |
| 20260906182306 | 52 | 87 | 1.7 | 5.2 | 0.01 | 0.22 | 0.06 | 94 | 1025.4 |
| 20260906181804 | 52 | 57 | 1.7 | 5.2 | 0.01 | 0.22 | 0.06 | 94 | 1025.4 |
| 20260906181305 | 52 | 43 | 0.9 | 1.7 | 0.01 | 0.22 | 0.06 | 94 | 1025.4 |
| 20260906180806 | 52 | 107 | 0.9 | 4.3 | 0.01 | 0.22 | 0.06 | 94 | 1025.5 |
| 20260906180305 | 52 | 76 | 1.7 | 2.6 | 0.01 | 0.22 | 0.06 | 93 | 1025.3 |
| 20260906175805 | 52 | 81 | 0.0 | 1.7 | 0.01 | 0.22 | 0.06 | 94 | 1025.5 |
| 20260906175306 | 52 | 71 | 0.9 | 2.6 | 0.01 | 0.22 | 0.06 | 94 | 1025.4 |
| 20260906174806 | 52 | 62 | 0.9 | 4.3 | 0.01 | 0.22 | 0.06 | 94 | 1025.7 |
| 20260906174305 | 51 | 56 | 1.7 | 5.2 | 0.01 | 0.22 | 0.06 | 95 | 1025.7 |
| 20260906173805 | 51 | 53 | 0.9 | 2.6 | 0.01 | 0.22 | 0.06 | 95 | 1025.7 |
| 20260906173306 | 51 | 72 | 0.0 | 2.6 | 0.01 | 0.22 | 0.06 | 95 | 1025.8 |
| 20260906172806 | 51 | 91 | 0.0 | 1.7 | 0.01 | 0.22 | 0.06 | 95 | 1025.9 |
| 20260906172306 | 51 | 91 | 0.9 | 2.6 | 0.00 | 0.21 | 0.05 | 95 | 1026.2 |
| 20260906171805 | 51 | 51 | 1.7 | 4.3 | 0.00 | 0.21 | 0.05 | 95 | 1026.1 |
| 20260906171306 | 51 | 60 | 1.7 | 2.6 | 0.00 | 0.21 | 0.05 | 95 | 1026.0 |
| 20260906170806 | 51 | 48 | 0.9 | 2.6 | 0.00 | 0.21 | 0.05 | 95 | 1026.0 |
| 20260906170305 | 51 | 72 | 0.9 | 2.6 | 0.00 | 0.21 | 0.05 | 94 | 1026.1 |
| 20260906165805 | 51 | 75 | 1.7 | 2.6 | 0.00 | 0.21 | 0.05 | 94 | 1026.2 |
| 20260906165306 | 51 | 65 | 0.0 | 1.7 | 0.00 | 0.21 | 0.05 | 94 | 1026.3 |
| 20260906163805 | 51 | 65 | 0.9 | 2.6 | 0.00 | 0.21 | 0.05 | 92 | 1026.7 |
| 20260906162806 | 51 | 76 | 0.0 | 1.7 | 0.00 | 0.21 | 0.05 | 92 | 1026.5 |
| 20260906162306 | 51 | 61 | 0.0 | 1.7 | 0.00 | 0.21 | 0.05 | 92 | 1026.5 |
| 20260906161805 | 51 | 105 | 0.0 | 1.7 | 0.00 | 0.21 | 0.05 | 92 | 1026.6 |
| 20260906161305 | 51 | 65 | 0.0 | 1.7 | 0.00 | 0.21 | 0.05 | 92 | 1026.6 |
| 20260906160806 | 51 | 44 | 0.0 | 1.7 | 0.00 | 0.21 | 0.05 | 92 | 1026.6 |
| 20260906160305 | 51 | 117 | 0.0 | 0.9 | 0.00 | 0.21 | 0.05 | 92 | 1026.7 |
| 20260906155805 | 51 | 118 | 0.0 | 0.9 | 0.00 | 0.21 | 0.05 | 91 | 1026.6 |
| 20260906155307 | 51 | 42 | 0.0 | 0.9 | 0.00 | 0.21 | 0.05 | 92 | 1026.5 |
| 20260906154805 | 51 | 39 | 0.0 | 0.9 | 0.00 | 0.21 | 0.05 | 91 | 1026.4 |
| 20260906153805 | 51 | 38 | 0.0 | 0.9 | 0.00 | 0.21 | 0.05 | 92 | 1026.5 |
| 20260906153306 | 51 | 35 | 0.0 | 1.7 | 0.00 | 0.21 | 0.05 | 92 | 1026.6 |
| 20260906152805 | 51 | 34 | 0.0 | 0.9 | 0.00 | 0.21 | 0.05 | 92 | 1026.4 |
| 20260906152307 | 51 | 34 | 0.0 | 0.9 | 0.00 | 0.21 | 0.05 | 92 | 1026.7 |
| 20260906151805 | 50 | 239 | 0.0 | 0.0 | 0.00 | 0.21 | 0.05 | 92 | 1026.8 |
| 20260906151306 | 50 | 239 | 0.0 | 0.0 | 0.00 | 0.21 | 0.05 | 92 | 1026.7 |
| 20260906150805 | 50 | 239 | 0.0 | 0.0 | 0.00 | 0.21 | 0.05 | 92 | 1026.5 |
| 20260906150305 | 50 | 239 | 0.0 | 0.0 | 0.00 | 0.21 | 0.05 | 92 | 1026.7 |
| 20260906145805 | 50 | 239 | 0.0 | 0.0 | 0.00 | 0.21 | 0.05 | 92 | 1026.6 |
| 20260906145307 | 50 | 239 | 0.0 | 0.0 | 0.00 | 0.21 | 0.05 | 91 | 1026.5 |
| 20260906142805 | 50 | 239 | 0.0 | 0.0 | 0.00 | 0.21 | 0.05 | 94 | 1026.6 |
| 20260906142306 | 50 | 239 | 0.0 | 0.0 | 0.00 | 0.21 | 0.05 | 94 | 1026.6 |
| 20260906141805 | 49 | 239 | 0.0 | 0.0 | 0.00 | 0.21 | 0.05 | 94 | 1026.7 |
| 20260906141306 | 49 | 239 | 0.0 | 0.0 | 0.00 | 0.21 | 0.05 | 95 | 1026.9 |
| 20260906140305 | 49 | 237 | 0.0 | 0.9 | 0.00 | 0.21 | 0.05 | 95 | 1026.7 |
| 20260906135805 | 49 | 234 | 0.0 | 0.0 | 0.00 | 0.21 | 0.05 | 95 | 1026.9 |
| 20260906135306 | 49 | 234 | 0.0 | 0.9 | 0.00 | 0.21 | 0.05 | 95 | 1026.9 |
| 20260906134805 | 49 | 234 | 0.0 | 0.9 | 0.00 | 0.21 | 0.05 | 95 | 1026.8 |
| 20260906134305 | 49 | 202 | 0.0 | 0.9 | 0.00 | 0.21 | 0.05 | 95 | 1026.9 |
| 20260906133806 | 49 | 178 | 0.0 | 0.9 | 0.01 | 0.21 | 0.05 | 95 | 1026.9 |
| 20260906133305 | 49 | 177 | 0.0 | 0.0 | 0.01 | 0.21 | 0.05 | 95 | 1026.8 |
| 20260906132306 | 49 | 177 | 0.0 | 0.9 | 0.02 | 0.21 | 0.05 | 95 | 1027.0 |
| 20260906131805 | 49 | 177 | 0.0 | 0.9 | 0.03 | 0.21 | 0.05 | 95 | 1027.1 |
| 20260906131304 | 49 | 177 | 0.0 | 0.0 | 0.03 | 0.21 | 0.05 | 95 | 1027.1 |
| 20260906130805 | 49 | 177 | 0.0 | 0.0 | 0.03 | 0.21 | 0.05 | 95 | 1026.9 |
| 20260906130305 | 49 | 177 | 0.0 | 0.0 | 0.04 | 0.21 | 0.05 | 95 | 1026.7 |
| 20260906124805 | 49 | 177 | 0.0 | 0.9 | 0.05 | 0.21 | 0.05 | 95 | 1027.0 |
| 20260906123806 | 49 | 175 | 0.0 | 0.0 | 0.04 | 0.20 | 0.04 | 95 | 1027.3 |
| 20260906123305 | 49 | 175 | 0.0 | 0.0 | 0.04 | 0.20 | 0.04 | 95 | 1027.4 |
| 20260906122805 | 49 | 175 | 0.0 | 0.9 | 0.04 | 0.20 | 0.04 | 95 | 1027.3 |
| 20260906122306 | 49 | 175 | 0.0 | 0.0 | 0.03 | 0.19 | 0.03 | 95 | 1027.2 |
| 20260906121806 | 49 | 175 | 0.0 | 0.9 | 0.02 | 0.18 | 0.02 | 95 | 1027.3 |
| 20260906121305 | 49 | 175 | 0.0 | 1.7 | 0.02 | 0.18 | 0.02 | 95 | 1027.3 |
| 20260906120805 | 49 | 170 | 0.9 | 1.7 | 0.02 | 0.18 | 0.02 | 96 | 1027.5 |
| 20260906120305 | 49 | 168 | 0.0 | 0.9 | 0.01 | 0.17 | 0.01 | 95 | 1027.8 |
| 20260906115805 | 49 | 168 | 0.0 | 0.9 | 0.00 | 0.16 | 0.00 | 95 | 1028.0 |
| 20260906114805 | 49 | 168 | 0.0 | 0.9 | 0.00 | 0.16 | 0.00 | 95 | 1028.2 |
| 20260906114305 | 49 | 168 | 0.9 | 1.7 | 0.00 | 0.16 | 0.00 | 95 | 1028.3 |
| 20260906113806 | 49 | 182 | 0.9 | 1.7 | 0.00 | 0.16 | 0.00 | 95 | 1028.2 |
| 20260906113305 | 49 | 173 | 0.0 | 0.9 | 0.00 | 0.16 | 0.00 | 95 | 1028.1 |
| 20260906112805 | 49 | 176 | 0.0 | 0.0 | 0.00 | 0.16 | 0.00 | 95 | 1028.3 |
| 20260906112307 | 49 | 176 | 0.0 | 0.9 | 0.00 | 0.16 | 0.00 | 95 | 1028.2 |
| 20260906111806 | 49 | 177 | 0.0 | 0.9 | 0.00 | 0.16 | 0.00 | 95 | 1028.5 |
| 20260906111305 | 49 | 177 | 0.9 | 0.9 | 0.00 | 0.16 | 0.00 | 95 | 1028.6 |
| 20260906110805 | 49 | 178 | 0.9 | 0.9 | 0.00 | 0.16 | 0.00 | 95 | 1028.5 |
| 20260906110306 | 49 | 177 | 0.0 | 1.7 | 0.00 | 0.16 | 0.00 | 95 | 1028.5 |
| 20260906105805 | 49 | 117 | 0.0 | 0.9 | 0.00 | 0.16 | 0.00 | 95 | 1028.5 |
| 20260906105306 | 49 | 113 | 0.0 | 0.9 | 0.00 | 0.16 | 0.00 | 95 | 1028.7 |
| 20260906102805 | 49 | 59 | 0.0 | 0.9 | 0.00 | 0.16 | 0.00 | 95 | 1028.2 |
| 20260906101805 | 49 | 59 | 0.0 | 0.0 | 0.00 | 0.16 | 0.00 | 95 | 1028.2 |
| 20260906100805 | 49 | 58 | 0.0 | 1.7 | 0.00 | 0.16 | 0.00 | 94 | 1028.6 |
| 20260906100306 | 49 | 43 | 0.0 | 0.9 | 0.00 | 0.16 | 0.00 | 94 | 1028.1 |
| 20260906095805 | 49 | 354 | 0.0 | 1.7 | 0.00 | 0.16 | 0.00 | 94 | 1028.1 |
| 20260906094805 | 49 | 85 | 0.0 | 0.9 | 0.00 | 0.16 | 0.00 | 94 | 1028.5 |
| 20260906094306 | 49 | 89 | 0.9 | 1.7 | 0.00 | 0.16 | 0.00 | 94 | 1028.4 |
| 20260906093805 | 49 | 61 | 0.9 | 1.7 | 0.00 | 0.16 | 0.00 | 94 | 1028.6 |
| 20260906093305 | 49 | 55 | 0.9 | 2.6 | 0.00 | 0.16 | 0.00 | 94 | 1028.6 |
| 20260906092805 | 49 | 50 | 0.9 | 0.9 | 0.00 | 0.16 | 0.00 | 95 | 1028.7 |
| 20260906092306 | 49 | 50 | 0.0 | 1.7 | 0.00 | 0.16 | 0.00 | 95 | 1028.9 |
| 20260906091306 | 49 | 48 | 0.0 | 0.0 | 0.00 | 0.16 | 0.00 | 95 | 1028.7 |
| 20260906090806 | 49 | 49 | 0.0 | 0.9 | 0.00 | 0.16 | 0.00 | 95 | 1028.8 |
| 20260906090305 | 49 | 9 | 0.0 | 0.9 | 0.00 | 0.16 | 0.00 | 95 | 1028.8 |
| 20260906085805 | 49 | 247 | 0.0 | 0.0 | 0.00 | 0.16 | 0.00 | 95 | 1028.7 |
| 20260906085307 | 49 | 247 | 0.0 | 0.0 | 0.00 | 0.16 | 0.00 | 95 | 1028.8 |
| 20260906084806 | 49 | 246 | 0.0 | 0.0 | 0.00 | 0.16 | 0.00 | 95 | 1029.3 |
| 20260906084305 | 49 | 246 | 0.0 | 0.0 | 0.00 | 0.16 | 0.00 | 95 | 1029.3 |
| 20260906083804 | 49 | 246 | 0.0 | 0.0 | 0.00 | 0.16 | 0.00 | 95 | 1029.3 |
| 20260906083305 | 49 | 246 | 0.0 | 0.0 | 0.00 | 0.16 | 0.00 | 95 | 1029.4 |
| 20260906082806 | 49 | 246 | 0.0 | 0.0 | 0.00 | 0.16 | 0.00 | 94 | 1029.3 |
| 20260906082306 | 49 | 246 | 0.0 | 0.0 | 0.00 | 0.16 | 0.00 | 94 | 1029.5 |
| 20260906081805 | 49 | 246 | 0.0 | 0.0 | 0.00 | 0.16 | 0.00 | 94 | 1029.6 |
| 20260906081305 | 49 | 246 | 0.0 | 0.0 | 0.00 | 0.16 | 0.00 | 94 | 1029.7 |
| 20260906080806 | 49 | 246 | 0.0 | 0.9 | 0.00 | 0.16 | 0.00 | 94 | 1029.7 |
| 20260906080305 | 49 | 246 | 0.0 | 0.9 | 0.00 | 0.16 | 0.00 | 94 | 1029.6 |
| 20260906075805 | 49 | 343 | 0.0 | 0.0 | 0.00 | 0.16 | 0.00 | 94 | 1029.5 |
| 20260906075306 | 49 | 343 | 0.0 | 0.0 | 0.00 | 0.16 | 0.00 | 94 | 1029.5 |
| 20260906074805 | 49 | 343 | 0.0 | 0.0 | 0.00 | 0.16 | 0.00 | 94 | 1029.5 |
| 20260906074305 | 49 | 343 | 0.0 | 0.0 | 0.00 | 0.16 | 0.00 | 94 | 1029.4 |
| 20260906073804 | 49 | 343 | 0.0 | 0.0 | 0.00 | 0.16 | 0.00 | 94 | 1029.5 |
| 20260906073305 | 49 | 343 | 0.0 | 0.9 | 0.00 | 0.16 | 0.00 | 94 | 1029.5 |
| 20260906072306 | 49 | 343 | 0.0 | 0.0 | 0.00 | 0.16 | 0.00 | 94 | 1029.8 |
| 20260906071806 | 49 | 343 | 0.0 | 0.9 | 0.00 | 0.16 | 0.00 | 94 | 1029.6 |
| 20260906071305 | 49 | 343 | 0.0 | 0.0 | 0.00 | 0.16 | 0.00 | 94 | 1029.8 |
| 20260906070806 | 49 | 343 | 0.0 | 0.0 | 0.00 | 0.16 | 0.00 | 94 | 1029.9 |
| 20260906065805 | 49 | 343 | 0.0 | 0.0 | 0.00 | 0.16 | 0.00 | 94 | 1030.1 |
| 20260906065306 | 49 | 343 | 0.0 | 0.0 | 0.00 | 0.16 | 0.00 | 94 | 1030.0 |
| 20260906064806 | 49 | 343 | 0.0 | 0.0 | 0.00 | 0.16 | 0.00 | 94 | 1030.0 |
| 20260906064305 | 49 | 343 | 0.0 | 0.0 | 0.00 | 0.16 | 0.00 | 94 | 1029.9 |
| 20260906063805 | 49 | 343 | 0.0 | 0.0 | 0.00 | 0.16 | 0.00 | 94 | 1029.7 |
| 20260906063305 | 49 | 342 | 0.0 | 0.9 | 0.01 | 0.16 | 0.00 | 94 | 1029.9 |
| 20260906062806 | 49 | 343 | 0.0 | 0.0 | 0.01 | 0.16 | 0.00 | 94 | 1029.8 |
| 20260906062306 | 49 | 343 | 0.0 | 0.9 | 0.01 | 0.16 | 0.00 | 94 | 1029.7 |
| 20260906061805 | 49 | 343 | 0.0 | 0.9 | 0.01 | 0.16 | 0.00 | 94 | 1029.7 |
| 20260906060819 | 49 | 343 | 0.0 | 0.9 | 0.01 | 0.16 | 0.00 | 94 | 1030.0 |
| 20260906060306 | 49 | 345 | 0.0 | 0.9 | 0.01 | 0.16 | 0.00 | 94 | 1029.7 |
| 20260906055805 | 49 | 277 | 0.0 | 0.9 | 0.01 | 0.16 | 0.16 | 94 | 1029.8 |
| 20260906054805 | 49 | 277 | 0.0 | 0.9 | 0.01 | 0.16 | 0.16 | 94 | 1029.9 |
| 20260906054306 | 49 | 277 | 0.0 | 0.9 | 0.01 | 0.16 | 0.16 | 94 | 1030.0 |
| 20260906053805 | 49 | 276 | 0.0 | 0.9 | 0.01 | 0.16 | 0.16 | 94 | 1030.1 |
| 20260906053305 | 49 | 276 | 0.0 | 0.9 | 0.00 | 0.15 | 0.15 | 94 | 1030.0 |
| 20260906052804 | 49 | 277 | 0.0 | 0.9 | 0.00 | 0.15 | 0.15 | 94 | 1029.9 |
| 20260906051805 | 49 | 277 | 0.0 | 0.9 | 0.00 | 0.15 | 0.15 | 93 | 1030.0 |
| 20260906051305 | 49 | 277 | 0.9 | 1.7 | 0.00 | 0.15 | 0.15 | 93 | 1029.9 |
| 20260906050806 | 49 | 249 | 0.9 | 2.6 | 0.00 | 0.15 | 0.15 | 93 | 1030.0 |
| 20260906045805 | 50 | 264 | 0.0 | 0.9 | 0.00 | 0.15 | 0.15 | 93 | 1030.0 |
| 20260906045306 | 50 | 262 | 0.9 | 1.7 | 0.00 | 0.15 | 0.15 | 93 | 1030.0 |
| 20260906044805 | 50 | 258 | 0.0 | 0.9 | 0.00 | 0.15 | 0.15 | 93 | 1030.1 |
| 20260906044305 | 50 | 256 | 0.0 | 0.9 | 0.00 | 0.15 | 0.15 | 93 | 1030.1 |
| 20260906043805 | 50 | 256 | 0.0 | 0.9 | 0.00 | 0.15 | 0.15 | 93 | 1030.1 |
| 20260906043305 | 50 | 256 | 0.0 | 0.0 | 0.00 | 0.15 | 0.15 | 93 | 1030.1 |
| 20260906042806 | 50 | 256 | 0.0 | 0.9 | 0.00 | 0.15 | 0.15 | 93 | 1030.2 |
| 20260906042306 | 50 | 256 | 0.0 | 0.9 | 0.00 | 0.15 | 0.15 | 93 | 1030.1 |
| 20260906041805 | 50 | 14 | 0.0 | 0.9 | 0.00 | 0.15 | 0.15 | 93 | 1030.1 |
| 20260906040805 | 50 | 15 | 0.0 | 0.9 | 0.00 | 0.15 | 0.15 | 93 | 1030.0 |
| 20260906035805 | 49 | 15 | 0.0 | 0.9 | 0.00 | 0.15 | 0.15 | 93 | 1029.9 |
| 20260906035306 | 50 | 15 | 0.9 | 1.7 | 0.00 | 0.15 | 0.15 | 93 | 1029.9 |
| 20260906034805 | 50 | 10 | 0.0 | 0.9 | 0.00 | 0.15 | 0.15 | 93 | 1029.8 |
| 20260906034305 | 49 | 11 | 0.0 | 1.7 | 0.00 | 0.15 | 0.15 | 93 | 1029.9 |
| 20260906033805 | 49 | 12 | 0.0 | 0.9 | 0.00 | 0.15 | 0.15 | 93 | 1029.9 |
| 20260906033305 | 49 | 12 | 0.0 | 1.7 | 0.00 | 0.15 | 0.15 | 93 | 1029.6 |
| 20260906032806 | 49 | 35 | 0.0 | 0.9 | 0.00 | 0.15 | 0.15 | 93 | 1029.5 |
| 20260906031805 | 49 | 17 | 0.0 | 2.6 | 0.00 | 0.15 | 0.15 | 93 | 1029.6 |
| 20260906030806 | 49 | 358 | 0.9 | 1.7 | 0.00 | 0.15 | 0.15 | 94 | 1029.6 |
| 20260906030305 | 49 | 348 | 0.9 | 1.7 | 0.00 | 0.15 | 0.15 | 94 | 1029.6 |
| 20260906025306 | 49 | 8 | 0.9 | 4.3 | 0.00 | 0.15 | 0.15 | 93 | 1029.6 |
| 20260906024805 | 49 | 346 | 0.0 | 1.7 | 0.01 | 0.15 | 0.15 | 93 | 1029.6 |
| 20260906024305 | 49 | 8 | 0.0 | 1.7 | 0.01 | 0.15 | 0.15 | 93 | 1029.6 |
| 20260906023805 | 49 | 26 | 0.9 | 4.3 | 0.01 | 0.15 | 0.15 | 93 | 1029.6 |
| 20260906023306 | 49 | 347 | 0.9 | 4.3 | 0.01 | 0.15 | 0.15 | 94 | 1029.5 |
| 20260906022805 | 49 | 8 | 0.9 | 2.6 | 0.02 | 0.15 | 0.15 | 94 | 1029.6 |
| 20260906022307 | 49 | 344 | 1.7 | 2.6 | 0.02 | 0.15 | 0.15 | 94 | 1029.4 |
| 20260906021805 | 49 | 353 | 1.7 | 4.3 | 0.02 | 0.15 | 0.15 | 94 | 1029.4 |
| 20260906021305 | 49 | 1 | 0.0 | 2.6 | 0.02 | 0.15 | 0.15 | 94 | 1029.6 |
| 20260906020805 | 49 | 356 | 0.9 | 2.6 | 0.03 | 0.15 | 0.15 | 94 | 1029.7 |
| 20260906020305 | 49 | 358 | 0.9 | 1.7 | 0.03 | 0.15 | 0.15 | 94 | 1029.7 |
| 20260906015805 | 49 | 2 | 0.9 | 1.7 | 0.03 | 0.15 | 0.15 | 94 | 1029.8 |
| 20260906015306 | 49 | 343 | 0.9 | 1.7 | 0.03 | 0.15 | 0.15 | 94 | 1029.6 |
| 20260906014305 | 49 | 324 | 0.9 | 1.7 | 0.02 | 0.14 | 0.14 | 93 | 1029.7 |
| 20260906013804 | 49 | 266 | 0.9 | 1.7 | 0.02 | 0.14 | 0.14 | 93 | 1029.6 |
| 20260906013306 | 49 | 271 | 0.0 | 1.7 | 0.02 | 0.14 | 0.14 | 93 | 1029.5 |
| 20260906012805 | 50 | 271 | 0.0 | 0.9 | 0.01 | 0.13 | 0.13 | 93 | 1029.5 |
| 20260906011805 | 50 | 247 | 0.0 | 0.9 | 0.02 | 0.13 | 0.13 | 93 | 1029.6 |
| 20260906011306 | 50 | 251 | 0.9 | 1.7 | 0.02 | 0.13 | 0.13 | 93 | 1029.6 |
| 20260906010805 | 50 | 343 | 0.9 | 4.3 | 0.02 | 0.12 | 0.12 | 93 | 1029.3 |
| 20260906010305 | 50 | 342 | 0.9 | 4.3 | 0.03 | 0.12 | 0.12 | 93 | 1029.3 |
| 20260906005805 | 50 | 0 | 0.0 | 1.7 | 0.03 | 0.12 | 0.12 | 93 | 1029.4 |
| 20260906005306 | 49 | 357 | 0.9 | 2.6 | 0.04 | 0.12 | 0.12 | 93 | 1029.5 |
| 20260906004805 | 50 | 359 | 0.9 | 1.7 | 0.04 | 0.12 | 0.12 | 93 | 1029.3 |
| 20260906004305 | 50 | 351 | 0.0 | 1.7 | 0.05 | 0.12 | 0.12 | 93 | 1029.3 |
| 20260906003806 | 49 | 8 | 0.9 | 2.6 | 0.05 | 0.12 | 0.12 | 93 | 1029.3 |
| 20260906003305 | 49 | 343 | 1.7 | 2.6 | 0.05 | 0.12 | 0.12 | 93 | 1029.4 |
| 20260906002805 | 49 | 348 | 0.9 | 1.7 | 0.06 | 0.12 | 0.12 | 93 | 1029.3 |
| 20260906002306 | 49 | 5 | 0.0 | 1.7 | 0.06 | 0.12 | 0.12 | 93 | 1029.5 |
| 20260906001306 | 49 | 21 | 0.0 | 1.7 | 0.05 | 0.11 | 0.11 | 93 | 1029.4 |
| 20260906000805 | 50 | 336 | 0.9 | 1.7 | 0.04 | 0.10 | 0.10 | 93 | 1029.5 |
| 20260906000304 | 49 | 271 | 0.9 | 0.9 | 0.03 | 0.09 | 0.09 | 93 | 1029.3 |
| 20260905234805 | 49 | 335 | 0.9 | 2.6 | 0.02 | 0.08 | 0.08 | 93 | 1029.5 |
| 20260905234305 | 49 | 340 | 0.9 | 2.6 | 0.01 | 0.07 | 0.07 | 93 | 1029.6 |
| 20260905233805 | 49 | 9 | 0.0 | 0.9 | 0.01 | 0.07 | 0.07 | 93 | 1029.5 |
| 20260905233305 | 49 | 5 | 0.0 | 1.7 | 0.01 | 0.07 | 0.07 | 93 | 1029.5 |
| 20260905232805 | 49 | 3 | 0.9 | 1.7 | 0.00 | 0.06 | 0.06 | 92 | 1029.3 |